Regional Weather Roundup
Issued by NWS Goodland, KS

Home | Current Version | Previous Version | Graphics & Text | Print | Product List | Glossary On
Versions: 1 2 3 4 5 6 7 8 9 10 11 12 13 14 15 16 17 18 19 20 21 22 23 24 25 26 27 28 29 30 31 32 33 34 35 36 37 38 39 40 41 42 43 44 45 46 47 48 49 50
000
ASUS43 KGLD 311059
RWRGLD

GOODLAND FORECAST AREA HOURLY WEATHER ROUNDUP
NATIONAL WEATHER SERVICE GOODLAND KS
500 AM MDT TUE MAY 31 2016

...OFFICIAL OBSERVATIONS...

CITY           SKY/WX    TMP DP  RH WIND       PRES   REMARKS
GOODLAND KS    CLOUDY    48  47  96 W5        30.05R
HILL CITY KS   CLOUDY    57  55  93 CALM      29.99R
IMPERIAL NEB   CLEAR     52  48  86 N9        30.05R
MCCOOK NEB     CLOUDY    54  51  90 N7        30.01R
AKRON CO       CLEAR     47  45  93 N9        30.12R
BURLINGTON CO  CLEAR     52  47  83 N7        30.07R
LIMON CO       CLOUDY    48  47  96 VRB3      30.14R
$$

...UNOFFICIAL OBSERVATIONS...

CITY           SKY/WX    TMP DP  RH WIND       PRES   REMARKS
GOVE KS          N/A    N/A N/A N/A MISG        N/A
LENORA KS        N/A     55  32  41 MISG        N/A
SHARON SPRINGS   N/A     52  49  90 CALM        N/A
TRIBUNE KS     CLOUDY    55  54  94 N9        30.06R
KIT CARSON CO    N/A     51  46  83 MISG        N/A
YUMA CO          N/A     49  47  92 CALM        N/A
$$




USA.gov is the U.S. government's official web portal to all federal, state and local government web resources and services.